Date String (YYYY-MM-DD hh:mm:ss) UTC,Instrument flags,Ambient pressure (hPa),Sample flow (lpm),Bypass flow (lpm),Sample temperature (°C),Ambient temperature (°C),ASC tube jacket temperature (°C),LED temperature (°C),Box temperature (°C),Sample RH (%),Span deviation,Mass concentration (μg/m³),Mass concentration (μg/m³),Mass concentration (μg/m³)
DateTimeUTC,F1_M11,P_M11,Q1_M11,Q2_M11,T1_M11,T2_M11,T3_M11,T4_M11,T5_M11,U1_M11,ZSPAN_M11,X2_M11,X0_M11,X1_M11
2023-02-22 14:00:00,,0809.2,5.00,0.00,22.9,22.7,00.0,31.5,24.6,06.2,0000.0,0003.32,0007.08,0002.92
2023-02-22 14:01:00,,0809.1,5.00,0.00,22.8,22.2,00.0,31.5,24.5,06.2,0000.0,0003.32,0006.36,0002.90
2023-02-22 14:02:00,,0809.0,5.01,0.00,22.8,21.7,00.0,31.5,24.4,06.2,0000.0,0003.28,0006.11,0002.87
2023-02-22 14:03:00,,0809.1,5.00,0.00,22.7,21.3,00.0,31.5,24.2,06.2,0000.0,0003.26,0005.97,0002.85
2023-02-22 14:04:00,,0809.2,4.99,0.00,22.7,21.1,00.0,31.5,24.2,06.2,0000.0,0003.24,0005.85,0002.82
2023-02-22 14:05:00,,0809.2,5.00,0.00,22.6,20.8,00.0,31.5,24.1,06.2,0000.0,0003.22,0005.75,0002.82
2023-02-22 14:06:00,,0809.2,5.00,0.00,22.6,20.9,00.0,31.4,24.1,06.2,0000.0,0003.21,0005.71,0002.81
2023-02-22 14:07:00,,0809.2,5.02,0.00,22.6,21.9,00.0,31.4,24.3,06.2,0000.0,0003.23,0005.91,0002.81
2023-02-22 14:08:00,,0809.2,4.99,0.00,22.8,22.9,00.0,31.4,24.6,06.2,0000.0,0003.22,0005.47,0002.79
2023-02-22 14:09:00,,0809.2,5.00,0.00,22.8,23.0,00.0,31.5,24.6,06.1,0000.0,0003.22,0004.84,0002.78
2023-02-22 14:10:00,,0809.2,5.04,0.00,22.8,22.3,00.0,31.5,24.5,06.1,0000.0,0003.21,0004.80,0002.76
2023-02-22 14:11:00,,0809.3,5.00,0.00,22.7,21.8,00.0,31.5,24.3,06.1,0000.0,0003.21,0005.05,0002.76
2023-02-22 14:12:00,,0809.2,4.99,0.00,22.7,21.4,00.0,31.5,24.2,06.1,0000.0,0003.18,0005.06,0002.73
2023-02-22 14:13:00,,0809.2,5.00,0.00,22.6,21.0,00.0,31.5,24.1,06.2,0000.0,0003.16,0005.05,0002.71
2023-02-22 14:14:00,,0809.2,5.01,0.00,22.6,20.8,00.0,31.4,24.1,06.2,0000.0,0003.16,0005.14,0002.70
2023-02-22 14:15:00,,0809.2,5.01,0.00,22.6,21.4,00.0,31.4,24.2,06.2,0000.0,0003.17,0005.25,0002.70
2023-02-22 14:16:00,,0809.3,4.98,0.00,22.7,22.3,00.0,31.4,24.5,06.2,0000.0,0003.17,0005.27,0002.68
2023-02-22 14:17:00,,0809.4,4.99,0.00,22.8,23.1,00.0,31.4,24.7,06.1,0000.0,0003.16,0005.28,0002.66
2023-02-22 14:18:00,,0809.4,5.00,0.00,22.9,23.2,00.0,31.4,24.7,06.1,0000.0,0003.14,0005.07,0002.65
2023-02-22 14:19:00,,0809.4,5.00,0.00,22.8,22.5,00.0,31.5,24.6,06.1,0000.0,0003.15,0005.20,0002.65
2023-02-22 14:20:00,,0809.3,5.02,0.00,22.8,21.9,00.0,31.5,24.4,06.1,0000.0,0003.14,0005.06,0002.64
2023-02-22 14:21:00,,0809.2,4.99,0.00,22.7,21.5,00.0,31.5,24.2,06.1,0000.0,0003.14,0006.49,0002.64
2023-02-22 14:22:00,,0809.3,4.99,0.00,22.7,21.1,00.0,31.5,24.1,06.1,0000.0,0003.14,0006.51,0002.63
2023-02-22 14:23:00,,0809.3,5.01,0.00,22.6,20.7,00.0,31.5,23.9,06.1,0000.0,0003.16,0006.46,0002.64
2023-02-22 14:24:00,,0809.4,5.02,0.00,22.6,21.1,00.0,31.4,24.1,06.1,0000.0,0003.15,0006.45,0002.64
2023-02-22 14:25:00,,0809.4,4.98,0.00,22.7,22.1,00.0,31.4,24.4,06.0,0000.0,0003.15,0006.36,0002.65
2023-02-22 14:26:00,,0809.4,5.00,0.00,22.8,23.0,00.0,31.4,24.6,06.0,0000.0,0003.12,0006.21,0002.63
2023-02-22 14:27:00,,0809.4,5.01,0.00,22.9,23.2,00.0,31.4,24.7,05.9,0000.0,0003.10,0006.15,0002.61
2023-02-22 14:28:00,,0809.3,4.99,0.00,22.8,22.6,00.0,31.5,24.5,05.9,0000.0,0003.11,0006.17,0002.62
2023-02-22 14:29:00,,0809.4,5.03,0.00,22.8,22.0,00.0,31.5,24.3,05.9,0000.0,0003.12,0006.22,0002.63
2023-02-22 14:30:00,,0809.3,5.00,0.00,22.7,21.5,00.0,31.5,24.2,06.0,0000.0,0003.11,0006.17,0002.63
2023-02-22 14:31:00,,0809.3,5.00,0.00,22.7,21.1,00.0,31.5,24.1,06.0,0000.0,0003.08,0005.98,0002.63
2023-02-22 14:32:00,,0809.4,4.99,0.00,22.6,20.8,00.0,31.4,24.0,06.0,0000.0,0003.08,0004.65,0002.62
2023-02-22 14:33:00,,0809.4,5.00,0.00,22.6,21.1,00.0,31.4,24.1,06.0,0000.0,0003.11,0004.37,0002.63
2023-02-22 14:34:00,,0809.4,4.99,0.00,22.7,22.0,00.0,31.4,24.4,05.9,0000.0,0003.10,0004.62,0002.64
2023-02-22 14:35:00,,0809.4,5.01,0.00,22.8,22.8,00.0,31.4,24.6,05.9,0000.0,0003.09,0005.26,0002.64
2023-02-22 14:36:00,,0809.4,5.01,0.00,22.9,23.1,00.0,31.4,24.7,05.9,0000.0,0003.08,0005.31,0002.63
2023-02-22 14:37:00,,0809.3,5.02,0.00,22.8,22.5,00.0,31.5,24.6,05.9,0000.0,0003.09,0005.35,0002.62
2023-02-22 14:38:00,,0809.3,5.00,0.00,22.8,21.8,00.0,31.5,24.3,05.9,0000.0,0003.12,0005.45,0002.63
2023-02-22 14:39:00,,0809.3,5.00,0.00,22.7,21.3,00.0,31.5,24.1,05.9,0000.0,0003.10,0005.63,0002.61
2023-02-22 14:40:00,,0809.3,5.00,0.00,22.6,21.0,00.0,31.5,24.0,06.0,0000.0,0003.12,0005.95,0002.61
2023-02-22 14:41:00,,0809.3,5.00,0.00,22.6,20.8,00.0,31.4,24.0,06.0,0000.0,0003.12,0005.96,0002.61
2023-02-22 14:42:00,,0809.3,5.01,0.00,22.6,21.7,00.0,31.4,24.2,06.0,0000.0,0003.13,0006.01,0002.62
2023-02-22 14:43:00,,0809.3,4.99,0.00,22.7,22.6,00.0,31.4,24.5,06.0,0000.0,0003.14,0006.05,0002.62
2023-02-22 14:44:00,,0809.4,5.01,0.00,22.8,23.3,00.0,31.4,24.7,05.9,0000.0,0003.14,0005.95,0002.63
2023-02-22 14:45:00,,0809.4,5.02,0.00,22.9,22.9,00.0,31.5,24.6,05.9,0000.0,0003.14,0005.51,0002.64
2023-02-22 14:46:00,,0809.4,4.98,0.00,22.8,22.3,00.0,31.5,24.4,05.9,0000.0,0003.14,0004.98,0002.64
2023-02-22 14:47:00,,0809.4,5.00,0.00,22.7,21.7,00.0,31.5,24.3,05.9,0000.0,0003.12,0005.64,0002.64
2023-02-22 14:48:00,,0809.3,5.00,0.00,22.7,21.3,00.0,31.5,24.1,06.0,0000.0,0003.11,0005.58,0002.64
2023-02-22 14:49:00,,0809.3,4.99,0.00,22.6,20.9,00.0,31.5,24.0,06.0,0000.0,0003.08,0005.51,0002.63
2023-02-22 14:50:00,,0809.3,5.01,0.00,22.6,20.7,00.0,31.4,23.9,06.0,0000.0,0003.08,0005.38,0002.63
2023-02-22 14:51:00,,0809.3,5.00,0.00,22.6,21.5,00.0,31.4,24.2,06.0,0000.0,0003.06,0005.07,0002.62
2023-02-22 14:52:00,,0809.4,4.99,0.00,22.7,22.5,00.0,31.4,24.5,06.0,0000.0,0003.07,0005.03,0002.63
2023-02-22 14:53:00,,0809.4,5.01,0.00,22.8,23.2,00.0,31.4,24.7,06.0,0000.0,0003.08,0005.06,0002.64
2023-02-22 14:54:00,,0809.5,5.02,0.00,22.9,23.0,00.0,31.4,24.7,05.9,0000.0,0003.09,0005.05,0002.65
2023-02-22 14:55:00,,0809.5,4.99,0.00,22.8,22.4,00.0,31.5,24.5,06.0,0000.0,0003.07,0005.02,0002.64
2023-02-22 14:56:00,,0809.5,5.01,0.00,22.8,21.8,00.0,31.5,24.4,06.0,0000.0,0003.06,0005.05,0002.63
2023-02-22 14:57:00,,0809.4,4.99,0.00,22.7,21.4,00.0,31.5,24.2,06.0,0000.0,0003.07,0005.05,0002.65
2023-02-22 14:58:00,,0809.4,5.00,0.00,22.6,21.0,00.0,31.5,24.1,06.0,0000.0,0003.11,0004.32,0002.65
2023-02-22 14:59:00,,0809.3,5.01,0.00,22.6,20.7,00.0,31.5,24.0,06.1,0000.0,0003.15,0004.60,0002.68
